Orbital Elements at Epoch 2459200.5 (2020-Dec-17.0) TDB
Reference: JPL 20 (heliocentric ecliptic J2000)
Element | Value | Uncertainty (1-sigma) | Units |
e | .0923543703037292 | 4.0898e-08 | |
a | 2.195183710562136 | 7.6319e-09 | au |
q | 1.992448901272166 | 8.9744e-08 | au |
i | 5.809632205788258 | 3.3864e-06 | deg |
node | 116.0944616275104 | 4.3749e-05 | deg |
peri | 304.8834412476019 | 4.8453e-05 | deg |
M | 203.7036330533132 | 2.0494e-05 | deg |
tp | 2459716.264107892624 (2022-May-16.76410789) | 6.8517e-05 | TDB |
period | 1187.967976918358 3.25 | 6.1953e-06 1.696e-08 | d yr |
n | .3030384715704678 | 1.5803e-09 | deg/d |
Q | 2.397918519852106 | 8.3368e-09 | au |
|
| | Orbit Determination Parameters
Additional Information
|